Location: Newark
(44.6768°N, 22.5302°E)
Time: 07:17:45
(UTC+00:00)

UKube-1 - Pass Details

Date: 05 July 2022
Orbit: 608 x 615 km, 98.4° (Epoch: 15 August)

Event Time Altitude Azimuth Distance (km) Brightness Sun altitude
Rises 19:54:22 0° 22° (NNE) 2,892 ? -13.3°
Reaches altitude 10° 19:56:45 10° 33° (NNE) 1,981 ? -13.6°
Maximum altitude 20:00:38 32° 97° (E) 1,050 ? -14.0°
Enters shadow 20:02:24 23° 140° (SE) 1,297 ? -14.2°
